Location: Poughquag
(41.6090°N, 73.6820°W)
Time: 12:42:28
(UTC-04:00)

Transit 2A Rocket - Pass Details

Date: 02 June 2020
Orbit: 584 x 919 km, 66.7° (Epoch: 06 July)

Event Time Altitude Azimuth Distance (km) Brightness Sun altitude
Rises 08:48:57 0° 317° (NW) 3,541 8.1 36.0°
Reaches altitude 10° 08:51:55 10° 304° (NW) 2,612 7.4 36.5°
Maximum altitude 08:56:38 24° 254° (WSW) 1,814 6.7 37.4°
Drops below altitude 10° 09:01:19 10° 203° (SSW) 2,579 7.7 38.3°
Sets 09:04:15 0° 190° (S) 3,487 8.4 38.8°
